This demonstration page uses our WeatherBlox Daily Observations layout. Learn more.

Left ArrowRight Arrow

39.29038, -76.61219

Hourly Observations for February 27, 2019

Temp ( °F °C ) Dew Point ( °F °C ) Humidity (%) Winds ( mph kmh ) Pressure ( in mb ) Visibility ( mi km ) Precip ( " mm )
12:54 am 00:54 undefined 36 2.2 16 -8.9 44 44 undefined N/A 30.40 1030 N/A N/A
1:54 am 01:54 undefined 35 1.7 17 -8.3 48 48 undefined N/A 30.39 1029 N/A N/A
2:54 am 02:54 undefined 34 1.1 16 -8.9 48 48 undefined N/A 30.38 1029 N/A N/A
3:54 am 03:54 undefined 33 0.6 16 -8.9 49 49 undefined N/A 30.37 1029 N/A N/A
4:54 am 04:54 undefined 32 undefined 16 -8.9 52 52 undefined N/A 30.39 1029 N/A N/A
5:54 am 05:54 undefined 30 -1.1 15 -9.4 54 54 undefined N/A 30.40 1030 N/A N/A
6:54 am 06:54 undefined 30 -1.1 15 -9.4 54 54 undefined N/A 30.41 1030 N/A N/A
7:54 am 07:54 undefined 31 -0.6 14 -10 49 49 undefined N/A 30.41 1030 N/A N/A
8:54 am 08:54 undefined 32 undefined 16 -8.9 52 52 undefined N/A 30.40 1030 N/A N/A
9:54 am 09:54 undefined 34 1.1 15 -9.4 46 46 undefined N/A 30.40 1029 N/A N/A
10:54 am 10:54 undefined 34 1.1 15 -9.4 46 46 undefined N/A 30.36 1028 N/A N/A
11:54 am 11:54 undefined 35 1.7 17 -8.3 48 48 undefined N/A 30.33 1027 N/A N/A
12:54 pm 12:54 undefined 35 1.7 16 -8.9 46 46 undefined N/A 30.29 1026 N/A N/A
1:54 pm 13:54 undefined 35 1.7 17 -8.3 48 48 undefined N/A 30.23 1024 N/A N/A
2:54 pm 14:54 undefined 37 2.8 21 -6.1 52 52 undefined N/A 30.19 1022 N/A N/A
3:54 pm 15:54 undefined 37 2.8 22 -5.6 54 54 undefined N/A 30.16 1021 N/A N/A
4:54 pm 16:54 undefined 37 2.8 23 -5 57 57 undefined N/A 30.13 1020 N/A N/A
5:54 pm 17:54 undefined 37 2.8 23 -5 57 57 undefined N/A 30.11 1020 N/A N/A
6:54 pm 18:54 undefined 38 3.3 24 -4.4 57 57 undefined N/A 30.09 1019 N/A N/A
7:54 pm 19:54 undefined 38 3.3 26 -3.3 62 62 undefined N/A 30.06 1018 N/A N/A
8:54 pm 20:54 undefined 39 3.9 29 -1.7 67 67 undefined N/A 30.04 1017 N/A N/A
9:54 pm 21:54 undefined 39 3.9 28 -2.2 65 65 undefined N/A 30.03 1017 N/A N/A
10:54 pm 22:54 undefined 39 3.9 30 -1.1 70 70 undefined N/A 30.01 1016 N/A N/A
11:54 pm 23:54 undefined 39 3.9 31 -0.6 73 73 undefined N/A 29.97 1015 N/A N/A

Powered by AerisWeather